RH
92 99 100 98 97 88 77 71 65 63 59 52 44 42 41 40 39 36 34 37 44 51 58 66 71 74 73 71 70 73 76 76 75 72 69 63 56 50 42 37 31 27 24 21 20 19 20 20 21 21 21 21 22 23 22 24 24 24 25 29 37 39 38 39 42 46 52 59 64 62 60 63 68 70 72 76 80 83 85 90 93 93 94 92 89 86 85 86
99 100 99 94 88 81 74 67 59 53 49 44 42 43 46 47 49 48 46 46 49 55 61 66 69 70 71 73 75 74 70 66 59 50 42 35 28 25 22 20 17 16 15 15 16 16 16 16 16 15 16 16 17 18 18 19 19 19 20 22 26 24 24 25 25 26 28 34 40 41 42 45 49 51 52 56 61 62 66 73 74 73 75 75 76 77 77 77
95 93 90 81 74 71 68 63 57 50 47 48 50 53 54 54 55 55 55 54 54 56 61 65 69 72 70 65 58 49 41 34 27 21 19 18 17 16 15 14 13 13 13 13 14 13 13 13 13 13 13 13 12 12 11 12 11 11 12 13 15 13 14 16 15 16 16 19 21 23 25 28 32 33 35 38 42 44 49 54 53 53 56 57 58 60 63 64
78 75 73 66 61 61 60 57 54 52 54 58 60 62 61 61 61 61 61 60 61 65 69 69 64 57 47 36 28 23 20 17 16 15 15 15 14 13 13 13 13 13 12 12 12 12 12 11 10 10 9 8 7 7 6 6 6 6 6 6 7 7 8 9 8 9 9 9 11 12 12 14 17 17 18 20 21 25 30 31 31 33 35 37 38 40 43 45
65 60 58 54 50 49 50 50 51 54 58 61 62 63 63 65 67 65 65 64 64 63 60 50 39 30 24 21 18 17 16 15 15 15 15 14 13 13 13 13 13 12 11 10 9 8 8 7 7 6 5 5 4 4 4 4 4 4 5 5 5 5 5 6 6 5 5 5 5 6 6 7 7 8 8 9 9 12 16 16 17 18 19 21 22 23 24 25
63 57 52 49 45 43 42 44 46 48 51 52 53 54 53 54 54 51 48 44 42 39 33 26 22 20 19 18 17 17 15 15 15 14 13 13 13 13 12 11 10 9 7 6 5 5 5 5 4 4 4 4 4 4 4 4 4 4 5 5 5 5 5 5 5 5 5 5 5 5 4 5 5 5 5 5 5 6 8 8 7 8 9 10 11 11 12 12
61 54 50 47 43 40 39 40 42 43 43 42 41 41 39 37 35 31 28 26 24 23 22 20 19 18 17 17 16 15 15 15 14 13 13 12 11 10 9 7 6 5 4 4 4 4 4 4 4 4 4 4 4 4 4 4 4 4 5 5 5 5 5 5 5 5 5 5 5 5 5 5 5 5 4 5 7 7 6 5 5 5 5 5 5 6 6 6
55 47 42 39 36 34 34 36 40 42 42 39 36 34 32 30 28 26 24 23 22 21 21 19 18 17 17 17 16 16 15 15 14 13 11 9 8 6 5 5 4 4 4 4 4 4 4 4 4 4 4 4 4 4 4 4 4 4 5 5 5 5 5 5 6 6 6 6 5 5 5 6 6 5 5 7 9 7 6 5 5 5 5 5 5 5 5 5
51 41 33 29 27 27 29 32 37 41 41 41 38 35 32 30 29 27 25 23 22 21 20 20 19 18 18 17 17 16 14 13 12 10 8 6 5 4 4 4 4 4 4 4 4 4 4 4 4 4 4 4 4 4 5 5 5 5 5 5 6 6 6 6 6 6 5 6 6 5 6 7 7 6 7 9 9 7 6 6 6 6 5 6 6 6 6 6
53 41 30 25 22 21 23 26 31 35 38 40 40 37 35 32 30 28 25 23 23 23 22 21 20 19 18 17 16 14 12 11 9 7 5 4 4 4 4 4 4 4 4 4 4 4 4 4 4 4 5 5 5 5 5 5 5 5 5 5 5 5 5 5 5 5 5 5 5 5 5 6 8 8 9 10 9 7 7 7 7 7 6 7 7 6 7 7
60 46 30 23 19 18 18 20 23 27 31 34 36 36 34 32 30 28 26 25 24 24 22 20 19 18 17 15 13 11 10 8 5 5 4 4 5 5 4 4 4 4 4 4 4 4 4 5 5 5 5 5 6 6 6 6 6 6 6 5 5 5 5 5 5 5 4 5 4 4 4 5 8 9 9 8 7 7 7 7 7 6 6 6 6 6 7 7
66 50 31 23 18 15 15 16 18 20 23 26 29 31 31 30 28 27 26 25 24 21 20 20 19 17 15 12 9 7 6 5 5 5 4 5 5 4 4 4 4 4 4 4 4 5 5 5 6 5 6 6 6 6 6 6 6 6 6 6 6 5 5 5 5 5 4 4 4 4 3 4 8 8 6 5 5 5 5 5 5 5 6 6 6 6 5 5
74 53 33 25 21 17 15 15 17 18 21 22 25 27 29 29 28 26 25 24 22 20 20 19 17 14 12 9 6 5 5 5 4 5 5 5 5 4 4 4 4 5 5 5 5 5 6 6 6 6 6 6 6 6 6 6 6 6 6 6 7 7 7 6 6 6 6 6 6 5 4 6 9 9 7 6 6 6 6 6 7 8 8 9 8 7 6 5
79 58 38 29 26 24 20 18 19 20 22 22 23 24 25 26 26 25 23 21 20 20 20 18 14 11 8 6 5 5 5 5 5 5 5 4 4 4 4 5 5 5 5 5 5 5 6 6 6 6 6 6 6 6 6 6 6 7 7 7 7 7 8 8 8 7 7 8 8 7 6 8 10 10 9 8 8 7 7 8 9 10 10 9 9 8 8 7
84 66 44 31 30 32 28 24 23 23 24 24 22 22 22 23 23 22 21 20 20 20 18 15 11 7 5 5 5 5 5 5 5 4 5 4 5 5 5 5 5 5 5 6 6 6 6 6 6 6 6 7 7 7 7 7 7 7 8 8 8 8 8 9 8 8 9 9 9 8 8 9 11 11 10 9 9 8 9 9 10 9 9 9 9 8 8 9
90 75 51 35 31 32 32 30 29 28 28 26 24 23 23 23 23 22 21 20 19 17 15 11 7 5 5 5 5 5 5 5 5 4 5 4 5 5 5 6 6 6 6 6 6 5 6 6 6 7 7 7 7 8 8 8 9 9 9 10 10 10 10 10 10 11 11 11 11 11 11 12 14 16 14 13 13 13 13 13 13 12 11 10 10 9 9 9
91 79 59 41 31 30 32 33 33 33 31 28 26 25 25 25 24 23 22 20 17 14 10 7 5 5 5 5 5 5 5 5 5 4 5 5 5 6 6 6 6 6 6 6 6 6 7 6 7 7 7 8 8 9 10 10 11 11 12 13 13 14 14 14 14 15 15 15 15 15 15 16 18 20 19 18 17 18 19 18 18 17 16 15 13 12 11 11
88 78 60 42 32 29 32 36 36 35 33 30 28 26 26 25 25 23 20 17 14 9 6 5 5 5 5 6 5 5 5 5 5 5 5 6 6 6 6 6 6 6 6 6 6 6 7 7 8 8 9 10 10 11 12 13 14 14 15 15 16 16 16 16 16 17 17 17 17 17 18 18 18 20 20 19 19 20 20 21 21 20 20 19 18 17 16 15
85 73 57 41 32 30 31 37 38 35 33 30 28 26 25 25 23 20 17 13 9 6 5 5 5 5 6 6 5 5 5 5 5 6 6 6 7 7 7 7 6 6 6 7 7 7 8 8 9 10 10 11 12 13 14 15 15 16 16 17 17 17 18 18 17 18 17 17 18 17 17 17 17 18 19 19 19 19 19 20 20 20 21 21 21 21 20 20
81 68 55 41 33 31 32 36 38 35 32 30 29 27 24 23 20 16 13 9 6 5 5 5 6 6 6 6 6 5 5 6 6 6 7 7 7 7 7 7 7 7 7 8 8 8 9 10 11 12 12 13 14 14 15 16 16 17 17 17 17 17 18 18 17 18 18 17 17 18 18 18 19 19 18 19 18 19 21 21 20 19 20 21 21 21 22 23
78 66 55 42 34 33 35 38 38 35 32 30 29 25 22 19 14 11 8 6 5 5 5 5 6 6 6 6 6 6 6 6 6 7 7 8 8 8 8 8 7 7 8 8 9 10 11 12 12 13 14 14 15 15 16 16 17 17 17 18 18 18 18 19 19 19 20 20 20 21 20 21 24 23 21 20 21 23 25 23 22 22 20 20 21 21 22 23
77 64 56 44 36 36 37 38 37 34 33 31 26 21 18 14 10 7 6 6 5 5 5 6 6 6 6 6 6 6 6 7 7 8 8 8 9 9 8 8 8 9 9 10 11 11 12 13 13 14 14 15 16 16 17 17 17 18 18 19 19 19 19 20 21 22 22 22 21 22 21 21 25 27 26 25 25 28 30 29 29 28 27 26 24 23 23 24
75 64 57 46 38 38 39 38 36 35 32 27 21 16 14 10 7 6 6 6 5 5 6 6 6 6 6 6 7 7 7 8 8 8 8 9 9 10 10 9 9 9 10 11 12 12 13 14 14 15 15 16 17 17 18 18 18 19 20 20 21 22 22 22 23 24 24 23 23 22 20 20 24 28 31 32 31 33 36 37 39 38 35 34 30 26 26 27
72 64 58 49 42 39 39 38 35 32 26 20 16 13 10 7 5 5 5 5 5 6 6 6 6 6 7 7 7 8 8 8 8 9 9 9 10 11 10 10 10 10 11 11 12 13 14 14 15 16 16 17 17 19 20 19 19 22 23 23 24 26 26 25 25 25 24 25 27 27 20 17 21 26 30 34 34 36 40 43 44 43 41 39 36 32 31 30
68 64 60 51 44 39 37 33 28 24 19 15 13 10 7 6 5 5 5 5 6 6 6 6 7 7 8 8 8 8 8 8 9 9 9 10 11 12 11 11 11 11 12 12 12 13 15 16 16 17 17 18 19 22 24 22 22 24 26 27 27 28 28 29 29 27 25 24 28 32 26 16 16 21 27 33 34 37 42 44 43 42 41 40 40 39 37 35
65 63 60 52 44 40 35 26 20 17 15 13 10 8 6 5 6 5 5 6 6 6 6 7 9 10 9 9 9 8 8 9 9 9 10 11 11 11 12 13 12 13 13 13 13 14 16 18 17 18 19 21 21 24 26 25 25 26 27 30 31 31 31 31 32 30 27 25 26 34 35 23 15 19 26 32 35 37 40 41 43 43 41 41 42 42 41 39
63 61 59 52 45 40 34 23 17 15 12 10 8 6 5 5 6 5 5 5 6 8 9 9 10 11 10 9 9 8 9 9 9 10 10 11 12 12 13 13 13 14 14 14 15 16 18 19 20 21 21 22 24 26 29 30 29 28 29 31 31 32 33 33 34 32 31 28 24 31 39 31 19 21 27 31 35 37 37 39 43 44 43 44 45 45 44 43
61 59 57 52 46 40 34 25 17 14 11 8 6 5 5 6 6 5 5 4 6 9 9 8 9 9 9 9 9 9 9 9 9 10 11 11 12 13 14 14 14 15 15 15 16 17 19 20 21 23 23 24 26 28 30 32 31 31 31 32 32 33 34 34 34 33 33 30 23 28 38 35 26 26 31 33 33 34 36 40 43 45 46 47 47 47 46 45
58 58 57 52 46 40 35 28 19 14 11 7 6 5 5 6 6 5 5 5 6 7 7 8 9 8 8 9 9 9 9 10 10 10 11 12 13 14 15 15 15 15 16 16 16 19 20 21 23 23 24 25 27 28 30 31 32 32 33 33 34 34 34 35 35 35 37 32 25 28 34 35 32 31 34 35 34 33 36 41 44 46 47 47 47 47 46 46
56 59 59 53 46 40 36 30 22 15 10 7 6 5 6 6 6 5 5 5 6 6 7 7 7 7 8 9 9 10 10 10 10 11 12 13 14 15 14 15 15 15 17 17 17 19 20 21 22 23 24 26 27 28 29 30 31 33 34 35 36 36 36 37 36 37 38 33 28 31 34 36 37 35 37 38 38 37 38 42 45 46 45 45 45 45 45 45
55 60 60 53 46 40 36 32 24 17 11 7 6 6 6 6 6 5 5 5 5 6 6 6 7 7 8 8 9 10 10 10 11 11 12 13 14 16 16 16 15 15 16 17 17 18 18 21 22 23 24 25 26 27 28 30 31 32 34 35 36 37 38 40 38 39 39 35 32 35 37 38 39 39 41 41 42 42 42 43 45 45 44 44 43 42 42 42
57 62 60 53 44 38 36 34 26 17 11 7 6 6 7 6 6 5 4 5 5 5 6 6 7 7 8 9 9 10 10 11 11 11 12 13 15 16 16 16 16 15 15 16 16 16 16 19 21 22 24 25 26 27 28 29 30 32 35 36 38 39 40 40 39 39 39 37 37 39 40 41 42 42 44 44 45 45 44 44 45 44 45 44 42 41 41 41
59 63 61 52 42 37 37 34 26 17 10 7 7 7 7 6 5 5 5 5 5 5 6 6 7 7 8 8 9 10 10 11 12 12 12 13 14 16 17 17 18 17 16 15 15 15 15 17 20 21 22 24 25 26 28 30 31 33 34 36 38 39 40 40 40 41 41 41 42 42 41 42 42 43 44 45 45 46 46 46 48 49 50 49 47 45 44 43
61 64 61 49 38 36 37 33 23 15 9 7 7 7 7 6 5 5 5 4 5 5 6 6 7 7 7 8 9 10 10 11 12 12 13 14 15 16 17 17 18 18 18 17 16 16 15 16 17 19 21 24 25 27 29 30 33 35 37 39 39 38 36 34 36 37 39 41 41 41 44 46 48 51 54 55 56 57 59 60 61 62 61 61 59 56 53 49
64 65 57 42 36 37 35 28 19 11 8 7 8 7 6 6 5 5 5 5 5 5 6 6 6 7 8 9 10 10 11 12 13 13 14 14 15 15 16 17 18 18 18 19 19 19 18 18 20 21 22 23 25 28 32 35 37 37 36 35 35 37 43 50 57 62 67 72 67 62 66 69 72 74 71 69 69 69 71 72 73 75 74 74 72 68 65 62
70 64 49 37 37 37 31 22 14 9 8 7 7 7 6 6 5 5 5 5 5 6 6 7 7 8 9 10 11 11 12 13 13 14 15 16 17 17 17 17 18 19 20 22 22 22 22 21 22 24 26 29 31 33 35 34 33 34 40 49 57 68 77 82 83 79 79 80 70 58 53 53 55 53 47 48 53 61 73 81 83 87 88 86 85 82 81 80
70 56 41 36 37 33 24 16 10 8 8 8 8 7 6 6 6 5 6 6 6 6 7 8 8 10 10 11 12 13 14 15 15 16 16 17 17 18 19 20 21 22 22 23 25 27 29 28 28 30 31 31 31 32 36 41 46 55 67 72 72 71 67 57 47 40 38 36 29 21 17 16 17 15 13 16 22 34 53 66 71 78 84 88 93 96 96 95
58 43 36 36 32 24 17 12 9 8 8 8 8 7 7 7 6 6 7 7 7 8 9 9 10 11 12 13 14 15 16 16 17 17 18 19 20 21 22 22 23 25 26 28 29 28 28 27 26 28 31 35 41 49 59 65 65 62 57 48 38 32 26 20 14 14 21 24 19 11 6 5 6 5 5 6 6 9 17 23 29 37 47 57 70 81 88 94
44 37 35 31 23 17 12 9 8 8 8 8 8 7 7 7 7 7 8 8 9 10 10 11 12 13 14 15 15 16 17 18 19 20 21 21 22 23 24 25 26 26 25 24 24 28 39 46 44 46 53 58 58 55 51 44 37 28 21 17 13 10 9 8 5 7 16 24 24 16 7 6 6 6 6 6 5 6 6 6 8 12 18 23 32 44 56 68
38 35 29 21 15 12 9 8 9 8 8 8 7 7 7 7 8 8 9 10 11 12 13 14 14 15 15 16 17 18 18 19 20 20 22 23 23 23 22 20 20 21 27 39 52 63 71 71 63 57 53 44 32 23 17 12 10 8 7 6 6 5 5 6 5 6 9 14 17 15 9 7 7 6 7 7 6 6 6 6 7 10 14 15 16 21 32 45
36 28 18 13 11 9 9 9 9 8 8 7 7 8 8 8 9 10 11 12 13 14 14 15 15 16 17 17 18 18 19 20 21 21 21 19 17 17 21 28 40 52 66 75 74 63 49 37 31 28 21 13 8 6 5 5 4 4 4 4 4 5 6 6 6 6 7 8 9 11 9 7 7 7 7 8 7 8 10 12 12 16 22 25 26 27 31 41
26 17 12 11 10 9 9 9 8 8 8 8 8 9 9 10 11 12 13 14 14 15 16 16 17 17 17 18 19 19 19 18 17 16 16 20 30 43 58 71 77 74 66 52 36 22 14 10 9 8 5 4 5 4 4 4 4 5 5 5 6 6 6 7 7 7 8 8 8 10 10 8 8 9 9 9 9 13 19 21 22 24 28 39 53 59 58 61
15 11 10 10 10 10 10 9 8 9 8 9 10 10 11 12 13 14 14 15 16 16 16 17 17 17 18 18 17 15 15 17 22 31 45 61 73 80 80 72 55 37 23 14 8 6 6 5 4 4 4 4 4 5 5 5 5 6 6 6 7 7 7 8 8 9 9 8 8 10 10 9 10 11 11 12 14 18 24 26 27 28 29 38 58 68 68 71
10 10 10 11 11 10 9 9 9 9 9 10 11 12 13 14 14 15 15 15 16 16 16 16 16 15 14 14 16 22 33 46 61 75 85 86 76 63 48 32 17 9 6 4 5 4 4 4 5 5 5 4 4 5 5 5 6 6 7 7 7 7 7 7 7 8 8 8 9 12 12 12 13 14 13 13 15 17 20 23 27 30 29 31 43 55 59 66
11 11 11 11 10 10 10 10 9 10 10 12 13 13 14 14 14 14 14 15 15 15 14 13 13 16 22 32 46 61 76 85 87 83 73 57 39 25 16 9 4 4 4 4 4 4 4 5 6 6 7 7 6 6 6 6 6 6 6 6 6 6 6 6 6 6 7 7 8 11 13 13 13 16 17 17 18 17 18 23 31 42 46 44 48 59 67 73
11 11 11 11 10 10 10 10 10 11 12 12 13 13 13 13 14 14 14 13 12 13 16 22 32 45 58 71 82 89 89 79 63 47 33 21 12 7 5 3 4 4 4 4 5 5 6 6 7 8 8 8 7 7 7 7 6 6 7 7 7 7 7 7 7 7 8 9 8 10 13 13 13 17 21 23 24 21 20 21 27 36 42 40 41 51 63 74
11 11 11 10 10 10 10 11 11 12 12 12 13 13 13 14 13 12 13 16 22 33 44 56 68 77 84 85 83 75 59 41 25 14 9 5 4 4 4 4 4 4 4 5 6 7 7 8 8 7 7 7 7 7 7 7 8 8 8 8 8 9 9 9 9 9 10 11 10 11 13 13 15 20 25 30 31 30 28 26 23 23 23 22 22 25 37 55
12 11 11 10 11 11 11 11 12 12 14 14 13 13 13 14 17 23 33 45 56 67 75 81 83 82 77 67 54 38 23 12 7 4 4 4 3 4 4 4 5 5 6 6 7 8 8 8 8 7 8 8 7 8 8 8 9 9 10 11 11 11 11 11 12 13 14 14 15 15 15 17 20 24 29 34 37 39 39 35 29 25 21 20 19 16 18 29
12 12 12 11 11 11 12 13 14 14 13 12 14 18 24 33 44 55 64 71 78 84 84 80 72 59 45 31 19 11 6 4 4 3 3 4 4 4 4 5 6 5 6 8 8 8 8 8 8 7 7 8 8 9 9 9 10 11 11 13 14 14 14 14 16 18 19 20 21 21 20 22 26 30 34 40 46 52 51 42 34 31 29 27 24 22 20 20
12 11 12 12 13 14 14 13 13 14 17 25 35 44 53 59 64 69 74 77 81 80 69 53 38 25 14 8 5 4 4 4 3 3 4 4 4 5 5 6 6 7 8 9 9 9 8 8 8 8 8 9 9 9 9 10 11 12 14 17 17 16 16 18 22 25 26 26 26 28 28 28 31 38 42 49 59 64 61 53 47 44 41 38 34 31 29 26
12 12 13 13 13 13 14 18 24 33 44 53 59 63 65 66 67 72 77 75 66 52 34 21 13 7 5 4 3 3 3 4 4 4 5 5 5 6 6 7 8 9 9 9 8 9 9 9 9 9 8 8 9 9 10 11 11 14 17 18 18 20 23 26 29 32 32 33 33 33 34 35 39 44 45 51 64 73 74 73 72 65 56 50 47 44 41 38
12 12 12 14 19 25 33 42 51 58 62 62 61 63 67 71 73 71 64 50 34 21 12 8 5 4 4 3 3 4 4 5 5 5 6 6 6 7 8 9 10 10 9 9 9 9 9 9 9 9 9 9 9 10 10 11 14 17 20 21 24 28 31 34 37 38 39 41 42 44 48 51 54 56 55 55 63 73 78 83 88 86 78 72 68 63 58 53
Wind_Speed
22 19 20 20 19 20 22 21 19 18 18 18 17 17 16 15 15 16 16 16 16 15 15 15 15 14 14 14 14 15 16 16 16 15 14 13 11 11 10 10 11 12 13 14 15 16 17 18 19 19 19 20 20 21 22 22 24 25 24 23 22 25 28 28 27 27 27 27 28 29 30 30 31 32 31 31 30 30 31 30 32 34 35 38 40 41 41 40
19 16 16 16 16 16 18 17 15 15 16 15 14 13 13 12 13 14 14 15 15 15 14 14 13 12 12 12 13 13 12 11 10 9 9 8 8 9 9 11 12 13 14 15 17 17 18 19 20 21 21 21 21 22 22 23 25 25 25 23 23 26 28 29 29 29 28 27 28 29 29 30 31 32 32 30 29 30 29 28 31 34 35 37 38 39 38 37
13 13 12 12 13 14 14 14 13 13 13 13 12 11 11 11 11 12 13 14 14 14 13 12 10 9 9 9 9 9 8 8 7 7 7 8 9 10 11 12 13 14 15 16 17 18 19 19 20 21 21 22 22 22 22 22 24 24 23 23 23 25 26 27 29 29 29 28 28 29 29 30 31 32 32 31 31 30 27 27 32 35 36 38 39 38 37 36
10 11 11 12 12 12 13 13 13 12 12 11 10 9 9 9 10 11 12 12 12 11 10 8 8 8 8 8 8 7 7 6 6 7 8 9 10 11 12 13 14 15 16 16 17 17 18 18 19 19 20 21 21 21 21 21 22 21 22 23 23 25 25 26 28 28 29 29 28 29 29 29 30 32 32 32 32 27 24 28 33 34 35 38 39 39 37 36
11 11 11 12 12 12 12 12 12 12 11 11 10 10 9 9 9 9 9 9 9 8 8 8 8 8 7 6 6 6 7 7 7 8 9 10 10 11 12 13 14 15 16 16 16 17 16 16 17 17 18 19 20 21 22 22 22 21 22 24 25 25 25 26 28 29 29 30 30 30 29 29 30 31 31 32 31 25 25 30 33 35 37 37 38 38 37 36
12 11 11 11 11 11 12 13 13 12 12 11 11 11 10 10 9 9 9 9 8 8 8 8 7 6 6 6 6 6 7 8 9 9 10 10 10 11 12 12 13 14 14 15 15 15 15 15 16 17 18 20 21 22 24 24 25 24 24 25 27 27 27 27 29 30 31 32 33 33 32 31 32 31 31 32 30 28 30 33 34 36 37 37 37 36 36 35
10 10 10 10 11 11 12 13 13 12 12 11 11 10 10 10 9 9 9 9 9 8 7 6 5 5 6 6 7 7 8 8 9 9 10 10 10 11 11 12 12 12 13 14 14 15 15 16 18 19 20 21 22 24 25 26 26 26 26 27 28 29 29 29 30 31 32 33 34 35 34 34 35 34 33 31 30 31 34 36 36 36 36 36 36 36 36 36
8 8 9 10 11 12 12 12 12 11 11 10 9 9 9 8 8 8 8 8 8 7 6 6 5 5 6 7 8 8 8 8 9 10 10 10 10 10 11 11 11 12 13 14 15 16 17 18 19 20 21 22 23 24 26 27 27 27 27 28 28 29 30 31 31 32 33 33 34 34 34 34 35 36 33 29 30 34 37 38 38 38 37 37 38 38 39 39
7 7 7 9 11 12 12 12 12 11 10 9 8 8 8 8 8 8 8 8 7 7 6 6 6 7 7 8 8 8 8 8 9 9 9 9 9 10 10 11 12 13 14 15 16 17 18 19 20 21 22 22 23 25 26 27 27 28 28 28 28 29 30 30 31 32 33 34 35 35 34 34 35 35 30 28 32 35 36 37 38 38 39 39 40 40 41 41
6 5 6 8 9 11 12 12 12 11 10 10 9 9 9 9 9 9 8 8 8 8 8 8 7 7 7 8 8 8 9 8 8 8 8 8 9 10 11 12 14 14 15 16 17 18 19 20 21 22 23 23 24 25 26 27 27 27 28 28 28 28 28 29 30 31 32 32 34 34 33 33 33 32 28 29 34 35 34 35 36 37 38 39 40 40 41 41
6 3 4 6 7 9 10 11 12 11 11 11 10 10 10 10 10 10 10 10 10 10 9 8 8 7 8 8 8 8 8 7 6 7 7 8 10 12 13 14 14 15 16 17 18 19 20 21 22 23 24 24 25 25 26 26 26 27 27 26 27 27 26 27 28 29 29 30 30 30 30 29 29 28 28 30 32 32 32 32 33 34 35 36 37 37 39 40
6 3 3 5 6 7 8 9 10 11 11 11 11 11 11 12 12 12 12 12 11 11 10 8 8 8 8 8 7 7 6 6 6 7 8 9 11 13 14 14 15 15 17 18 19 21 22 22 23 24 24 24 24 25 25 25 25 26 26 25 25 25 25 26 27 27 27 27 26 28 26 22 22 24 26 29 29 29 29 28 29 29 28 28 28 29 31 35
6 4 4 5 6 6 7 8 9 9 10 10 11 12 12 13 13 13 13 12 11 10 9 8 8 8 7 7 6 6 5 6 7 8 9 11 12 13 14 15 16 16 18 20 21 22 23 23 23 23 23 24 24 24 24 24 24 25 25 25 24 24 23 25 27 26 26 26 25 28 25 19 20 25 26 28 28 28 28 28 28 27 26 26 25 26 27 30
6 4 4 5 5 5 6 7 7 8 9 10 11 12 13 13 13 13 13 12 10 9 9 8 8 7 6 5 5 5 6 8 8 9 10 12 13 14 14 15 17 18 20 21 22 23 23 22 23 22 23 23 23 23 23 23 23 24 24 23 24 23 22 24 26 26 26 26 26 29 28 22 22 26 28 30 30 30 30 30 30 30 29 29 29 30 29 29
6 4 3 4 4 5 5 6 6 7 8 9 10 12 12 13 13 13 12 11 10 9 9 8 7 7 5 4 4 6 7 9 9 10 12 13 13 14 15 16 19 20 21 22 22 22 22 22 22 21 21 22 22 22 21 22 22 23 23 22 23 23 22 23 25 25 25 25 25 28 29 23 21 25 28 30 30 30 30 29 30 31 31 32 32 32 32 31
6 5 3 3 2 4 4 5 5 7 7 9 10 11 11 11 12 12 11 10 10 9 8 8 7 6 4 4 5 7 9 10 11 11 12 13 14 14 16 18 20 22 22 22 21 21 21 21 21 20 21 20 21 21 21 22 22 23 23 22 22 22 22 22 23 24 24 24 24 26 27 23 20 23 26 29 29 28 27 27 29 29 30 31 31 31 32 32
7 5 3 2 1 2 4 5 6 7 7 8 9 10 10 10 10 10 10 10 9 8 8 7 7 5 4 5 7 8 10 11 12 12 13 13 14 16 18 20 21 22 22 21 21 21 20 20 20 20 20 20 21 21 21 21 22 22 22 22 22 22 23 24 23 23 24 24 24 26 27 23 21 22 25 29 29 27 26 27 27 27 28 29 29 29 30 31
6 6 4 3 1 2 4 5 6 7 7 8 9 9 9 9 10 10 9 9 9 8 8 7 6 5 5 6 8 9 11 12 12 13 13 14 15 17 20 21 22 21 21 21 20 20 19 19 19 20 20 20 21 22 22 22 22 22 22 22 22 22 22 25 25 24 25 24 24 26 26 22 21 22 24 29 30 27 25 26 25 26 27 27 28 28 28 29
6 6 5 3 2 1 3 5 6 7 8 8 8 8 8 9 9 9 9 9 9 8 7 6 5 5 6 8 10 11 11 12 13 12 13 14 16 19 21 22 21 20 20 20 19 19 19 19 19 20 20 21 21 22 22 22 22 23 23 23 23 22 21 24 26 26 27 26 24 26 27 23 20 21 23 27 29 27 26 26 26 26 26 26 27 27 28 28
6 7 6 4 2 2 3 5 6 7 8 8 8 8 8 8 9 9 10 10 9 8 6 5 4 5 7 9 11 12 12 13 13 12 14 16 18 20 21 21 21 20 19 19 19 19 19 19 19 20 21 21 22 22 22 23 23 24 24 23 24 25 23 23 26 27 28 28 26 27 27 23 20 21 22 24 26 27 28 28 27 27 26 26 26 27 28 28
6 7 6 4 3 2 3 5 6 7 7 7 7 7 8 9 9 9 10 9 8 7 5 4 5 7 9 11 12 12 13 13 13 13 14 17 19 21 21 21 20 20 19 19 19 19 20 20 21 21 21 22 22 23 24 24 24 25 26 25 25 27 26 25 27 28 30 31 29 30 31 24 20 20 20 21 25 27 30 31 31 30 28 26 27 27 27 27
6 6 6 4 3 1 3 4 6 7 8 8 7 8 9 9 9 9 9 9 8 6 5 5 7 9 11 12 13 13 14 14 13 14 16 18 20 21 21 21 20 20 20 20 20 20 21 21 22 22 22 23 23 24 25 26 25 25 27 27 27 29 30 28 28 30 32 34 33 34 36 29 21 18 17 20 24 25 28 31 33 35 33 29 28 27 27 27
5 6 6 4 3 1 2 4 6 7 7 8 7 8 9 9 8 8 8 8 7 6 5 7 8 10 12 13 13 14 14 14 14 15 17 18 20 21 21 21 21 21 21 21 21 21 22 22 22 24 24 24 25 25 27 28 27 26 27 29 29 30 32 32 32 33 35 37 37 37 41 36 26 19 16 20 23 22 25 29 33 37 37 33 29 26 28 30
5 6 5 4 3 2 2 4 5 6 7 7 8 8 9 8 8 8 8 7 6 6 7 8 10 11 13 13 14 15 14 14 15 17 18 19 20 20 21 21 21 22 22 23 22 22 24 25 23 24 26 26 26 26 29 31 31 28 28 30 31 32 34 36 36 37 39 40 40 40 44 41 32 25 21 23 24 22 23 27 32 38 40 39 35 31 33 36
5 5 5 4 3 2 2 3 4 5 6 6 7 8 8 8 8 8 8 7 7 7 8 10 11 12 13 13 14 15 15 15 17 18 19 20 20 21 21 22 22 23 24 25 24 23 25 26 26 26 27 27 28 28 30 34 34 32 31 32 34 34 36 38 39 41 42 44 43 43 45 45 41 35 32 32 30 26 27 29 33 39 42 43 41 38 39 40
5 5 5 3 3 2 2 3 4 4 5 6 7 8 8 7 8 9 8 8 9 9 10 11 12 12 13 14 16 16 16 17 18 19 20 20 21 22 22 23 23 24 25 26 26 25 26 27 28 28 28 28 29 30 32 36 37 36 35 36 37 38 39 40 41 43 45 47 48 46 46 49 48 45 45 45 39 34 34 35 35 38 41 43 44 44 43 43
5 5 4 3 3 2 2 3 4 5 5 7 8 8 8 7 8 9 9 9 10 11 11 11 12 13 14 16 16 17 17 18 19 20 21 21 22 23 22 23 24 25 27 28 28 26 28 29 29 30 30 30 31 33 35 37 39 40 39 40 41 42 43 43 44 46 48 50 52 48 47 51 54 52 54 55 50 45 44 41 39 40 41 42 44 45 46 47
5 5 4 4 4 3 3 4 5 6 7 8 8 8 8 7 8 9 9 10 10 11 11 12 13 14 15 17 17 18 19 20 20 21 22 23 23 23 24 24 25 26 28 30 30 29 31 32 31 32 33 33 34 36 37 39 41 42 42 43 44 45 46 47 47 50 50 53 55 51 50 55 58 58 60 60 57 55 54 50 47 45 42 41 43 45 47 49
4 5 5 5 4 4 5 5 6 7 8 8 9 8 8 8 9 10 10 11 11 12 12 13 15 16 16 17 19 19 20 21 22 22 23 23 24 25 25 25 27 28 29 31 31 31 34 35 34 35 36 36 38 39 40 41 42 44 45 46 47 48 49 50 51 52 53 56 57 54 55 58 61 62 62 62 62 62 61 60 57 53 49 47 47 48 48 48
5 6 6 6 5 6 6 6 7 8 9 9 9 9 9 10 10 11 12 12 12 13 14 15 16 17 17 19 20 21 21 22 23 24 24 25 25 26 27 27 29 30 31 33 33 34 36 37 37 38 38 39 41 42 43 44 45 46 47 48 49 51 52 52 54 54 55 58 59 57 58 60 62 64 65 64 64 65 65 65 63 61 59 56 53 51 50 50
5 6 7 6 6 6 6 7 8 9 10 10 10 10 10 11 12 12 12 13 14 14 15 16 17 19 19 20 21 22 23 23 24 25 26 26 27 28 29 30 31 32 33 34 35 36 38 39 39 40 41 42 43 44 45 46 47 48 49 50 51 53 54 54 55 56 58 60 60 59 61 63 64 66 66 66 66 67 68 68 67 68 67 63 60 56 54 52
6 7 8 7 7 7 7 8 9 10 10 11 10 10 11 12 13 13 14 14 15 15 16 17 18 20 21 22 22 23 24 25 26 26 27 27 28 29 31 32 34 35 36 36 37 39 40 41 42 42 43 44 45 46 47 48 50 50 51 52 54 55 56 56 58 58 60 61 60 61 63 65 67 68 68 68 68 69 70 70 70 71 71 69 66 62 58 55
7 8 8 8 8 8 8 9 10 11 11 11 11 11 12 12 13 14 15 16 16 17 18 18 20 21 23 23 24 25 25 26 27 27 28 28 29 30 32 33 35 37 38 40 41 42 42 43 44 45 46 47 47 49 50 51 52 53 53 54 56 56 57 59 60 60 61 61 61 63 65 67 68 69 69 69 70 70 71 71 71 72 72 71 70 66 63 60
8 8 9 9 9 9 9 10 11 11 11 11 11 12 12 13 13 14 15 16 17 18 19 20 20 22 24 25 26 26 27 27 28 29 29 29 30 31 33 34 36 38 39 41 42 43 44 45 47 49 50 51 51 52 53 54 55 55 56 56 57 57 57 59 61 61 63 63 63 65 68 68 68 68 69 69 70 71 70 70 70 70 70 70 70 69 66 63
8 9 10 10 9 9 10 11 11 11 11 11 12 13 13 13 14 15 16 17 18 19 20 21 22 22 24 26 27 28 29 29 29 29 30 31 31 32 34 36 37 39 40 41 42 43 44 45 48 50 51 52 53 54 55 56 56 57 59 59 60 59 60 62 63 64 65 65 66 66 66 66 65 66 67 66 67 67 67 68 68 68 68 68 68 68 68 66
8 10 10 10 9 10 10 11 11 11 11 12 12 13 14 15 15 15 16 17 18 19 21 22 23 23 24 25 27 28 29 30 31 31 31 32 33 34 36 38 39 40 41 42 44 45 45 45 47 50 52 52 53 56 57 57 58 60 62 62 62 63 63 65 66 67 67 67 68 66 64 64 64 65 65 64 64 64 64 65 66 66 66 66 67 67 67 67
9 10 10 10 10 10 11 11 11 11 12 12 13 14 15 16 16 16 17 18 19 20 21 23 23 24 25 26 27 28 29 31 32 32 33 33 35 36 38 39 40 42 43 44 45 47 49 48 47 50 53 53 54 57 57 59 61 62 62 63 63 64 65 65 67 67 67 68 68 66 65 65 65 66 65 64 63 64 64 64 65 66 66 66 67 67 67 67
10 10 10 10 10 10 11 11 11 12 13 13 14 15 16 16 17 17 18 19 20 22 23 24 25 25 26 27 28 29 30 31 33 34 35 36 37 38 40 41 43 44 45 47 47 48 51 52 50 51 54 56 57 58 58 60 61 61 61 62 63 64 65 65 66 67 66 67 67 67 66 66 66 66 65 64 64 64 64 64 65 66 66 66 67 67 66 66
10 10 9 9 10 10 11 11 12 12 13 14 14 15 16 17 17 18 19 20 21 23 24 25 27 27 28 29 30 31 32 34 35 36 36 38 39 41 43 44 45 46 47 48 49 50 52 55 55 52 53 55 56 56 56 57 58 58 60 61 61 62 63 63 64 65 65 66 67 68 67 67 67 67 66 66 66 66 66 65 66 66 67 67 67 67 67 66
9 9 9 9 10 10 11 12 12 13 13 14 15 15 16 18 19 19 20 21 23 24 25 26 28 29 30 31 33 34 35 36 37 38 39 40 42 44 45 46 47 48 49 49 51 51 52 54 55 52 50 51 52 53 54 55 56 57 57 58 59 60 61 62 63 63 64 65 66 68 69 69 69 69 68 68 68 68 68 67 67 67 67 68 68 68 67 67
9 9 9 9 9 10 11 12 12 13 14 14 15 16 17 19 20 21 22 23 24 26 27 28 29 31 32 34 35 36 37 38 39 40 41 43 45 46 47 48 48 49 49 50 50 51 51 52 54 53 52 51 50 51 53 53 54 56 56 57 58 59 61 62 63 63 63 64 65 66 69 70 69 69 69 68 68 69 69 68 68 67 67 67 67 67 67 66
8 8 8 8 9 10 11 12 13 14 14 15 16 17 19 20 21 23 24 25 26 28 29 30 32 33 34 35 37 38 39 40 41 43 44 46 47 48 48 48 49 49 49 49 49 50 51 53 54 54 52 51 51 51 51 52 53 55 56 57 57 58 60 61 63 63 64 65 65 65 67 69 69 67 67 67 67 67 68 68 68 67 67 67 67 66 65 65
8 8 8 8 9 10 11 13 14 14 15 16 17 19 20 22 23 24 26 27 28 30 31 32 34 35 36 37 38 40 41 42 43 44 45 47 47 47 47 47 47 47 47 48 49 49 51 53 54 53 52 50 49 51 52 52 53 55 56 56 57 58 59 61 62 63 64 65 64 63 65 67 66 64 64 64 64 64 65 66 66 67 67 67 67 67 67 66
7 7 8 9 10 11 12 13 14 15 16 17 18 20 22 23 25 26 28 29 30 32 33 34 35 36 37 39 40 41 42 43 44 44 45 46 46 46 47 47 47 47 48 48 49 50 51 52 53 55 55 53 52 53 54 54 55 57 59 60 60 59 59 60 61 61 63 64 62 62 63 63 62 62 61 60 60 61 61 62 63 64 64 65 65 66 67 67
7 7 9 9 11 12 13 14 16 17 18 19 20 22 24 25 26 28 29 31 32 33 34 35 37 38 38 39 40 41 42 43 43 43 44 44 45 45 46 46 46 47 48 48 49 49 50 51 53 55 57 57 56 56 57 58 58 58 59 60 60 59 59 59 60 60 62 62 61 61 62 61 60 61 60 59 58 58 57 57 57 58 59 59 60 62 63 65
7 8 9 10 12 13 14 16 17 18 20 21 23 24 26 27 28 30 31 32 33 34 35 36 37 38 38 39 40 41 41 41 41 41 42 43 43 44 45 45 45 46 46 47 48 48 49 51 52 53 54 55 55 55 56 57 56 55 55 55 57 58 58 59 59 59 60 60 59 59 61 61 61 61 60 59 58 56 56 55 54 54 55 55 55 56 57 59
8 9 11 12 13 14 16 17 19 20 22 23 25 26 28 29 30 31 32 33 34 35 36 36 37 38 38 39 40 40 40 40 40 40 41 42 43 44 44 43 43 44 45 47 48 49 51 52 52 53 53 52 53 54 54 54 55 55 55 55 55 57 57 58 58 58 58 60 60 58 59 61 61 60 59 59 58 57 56 56 55 54 54 54 54 53 54 55
10 11 12 14 15 16 18 19 20 22 23 25 27 28 29 30 30 31 31 32 33 35 36 37 37 38 38 39 39 39 39 39 40 41 41 41 41 41 42 42 43 45 47 48 50 51 52 53 53 53 52 51 52 54 54 55 56 57 57 57 57 58 58 58 59 59 59 59 60 59 59 60 60 60 59 59 59 58 57 56 56 55 54 54 53 52 52 54
12 13 14 16 17 18 20 21 23 24 25 26 27 28 28 29 29 30 31 33 34 35 36 36 36 37 37 38 38 39 40 40 41 41 41 40 40 41 42 44 46 48 50 51 52 53 53 53 53 53 52 51 53 55 56 57 58 59 60 59 59 60 61 61 60 59 59 59 60 60 59 59 60 60 59 59 59 58 57 56 55 55 55 55 53 52 51 52
13 14 16 17 19 20 22 23 24 25 25 26 26 27 28 29 30 31 32 33 34 34 34 35 35 36 37 38 39 40 40 40 40 40 39 40 41 43 44 46 48 50 51 52 52 52 52 52 52 53 53 52 54 56 57 58 59 61 61 60 61 63 63 63 61 59 59 59 59 59 60 59 59 59 59 58 58 57 56 56 55 56 56 56 54 53 52 52
14 16 17 18 20 21 23 23 24 24 24 25 26 28 29 30 31 32 32 33 33 33 34 35 36 37 38 39 39 39 39 38 38 38 39 40 42 44 46 48 49 50 51 51 52 52 52 52 53 54 55 54 56 58 59 61 62 62 62 62 64 65 64 63 61 59 60 61 60 60 61 60 60 60 59 58 57 56 56 56 56 56 56 56 55 54 54 53
16 17 18 19 20 21 22 22 23 24 25 26 28 29 30 31 31 31 31 32 32 33 34 36 37 38 39 39 38 37 36 36 36 38 39 42 44 46 48 49 50 50 51 51 52 52 53 54 55 57 57 57 58 60 62 64 64 64 64 65 65 65 64 62 60 59 61 62 62 62 62 62 61 61 61 59 58 57 57 57 57 56 56 56 56 55 55 54
Wind_Direction
202 203 198 202 206 206 209 211 214 217 221 225 228 231 234 236 239 242 242 238 238 238 238 239 241 244 249 256 262 265 266 266 265 266 268 270 273 277 283 289 292 294 297 299 301 302 302 301 300 299 299 298 298 298 298 298 296 294 294 296 295 289 286 286 285 284 282 281 281 282 282 283 283 282 281 280 280 279 278 278 276 273 270 267 266 266 267 268
195 191 188 196 203 203 204 207 212 216 221 225 226 227 229 232 235 239 240 238 237 236 238 240 244 250 256 261 262 262 259 255 254 254 258 266 276 285 290 294 296 298 301 302 302 301 300 300 300 300 301 300 300 299 298 297 295 295 296 296 292 287 288 290 290 288 287 286 284 283 283 283 282 281 281 280 279 278 278 279 277 274 272 270 268 267 267 268
182 175 176 184 192 196 198 202 206 209 212 214 215 216 219 224 228 232 234 234 235 236 239 243 245 248 249 249 246 242 239 239 245 256 269 280 287 293 296 299 301 303 303 302 301 300 300 301 302 303 303 302 301 299 298 297 296 298 299 298 294 292 292 292 292 292 291 289 287 285 284 283 282 281 281 281 279 279 281 278 273 271 271 271 270 269 269 268
164 165 171 174 179 186 188 192 196 198 200 200 201 203 208 214 219 224 227 230 232 232 234 234 230 228 228 230 234 239 246 253 267 280 288 294 298 301 303 304 305 304 303 302 301 301 302 303 303 303 302 302 301 301 301 299 300 302 302 300 298 297 297 296 295 294 293 292 289 288 286 285 284 284 284 283 282 284 283 276 272 271 270 270 270 271 270 270
160 160 166 170 174 179 182 186 189 191 190 189 191 192 196 202 206 209 211 215 217 215 211 210 214 220 227 236 249 262 273 279 287 291 295 298 301 303 303 303 301 300 300 300 302 303 304 305 305 304 304 303 303 304 304 303 303 304 304 302 299 299 299 298 297 296 296 294 293 291 289 288 286 286 286 285 287 291 283 275 274 274 272 272 273 274 275 275
164 165 169 171 175 179 182 185 186 186 183 183 184 185 188 192 196 197 197 199 203 205 204 207 215 226 239 250 262 274 280 285 290 293 295 297 299 299 298 298 298 299 301 303 305 306 307 308 306 306 305 305 305 305 304 304 305 306 306 302 300 300 299 297 296 295 295 294 294 292 292 292 289 288 287 288 293 292 283 277 276 276 278 279 280 281 281 279
169 172 175 177 181 185 187 188 188 186 183 182 182 182 184 187 193 196 198 201 205 210 214 219 227 240 257 266 273 278 283 286 289 291 292 296 299 300 301 302 303 305 307 308 308 308 307 307 306 305 305 305 306 305 304 305 306 307 306 303 302 301 299 298 296 295 294 293 292 292 292 292 290 288 288 293 296 288 281 280 280 281 282 283 284 283 281 278
170 176 181 186 187 188 189 190 190 190 188 186 186 188 190 194 201 205 208 211 213 218 226 236 246 258 269 275 278 280 282 283 285 290 295 301 306 307 308 308 307 307 307 307 306 307 307 306 306 306 306 306 306 305 304 305 306 306 304 302 302 300 299 299 298 296 295 294 293 292 293 292 291 289 291 296 292 283 281 282 283 283 282 281 281 280 279 278
166 178 189 193 190 190 190 190 191 193 195 195 198 202 206 210 214 218 221 223 226 229 236 245 252 259 265 269 273 275 277 280 286 293 301 308 311 310 309 306 305 306 306 307 308 308 307 307 307 306 306 306 305 304 304 305 305 305 303 302 301 299 299 298 298 296 295 295 294 294 295 293 292 292 295 294 286 282 283 283 282 282 281 281 280 280 280 279
152 174 195 200 194 189 190 192 193 195 198 202 207 212 218 222 227 231 234 235 236 238 241 246 250 256 260 263 267 271 277 283 291 299 307 310 309 307 305 304 305 307 308 309 309 308 307 307 307 307 307 307 306 305 306 307 306 306 304 304 303 302 301 300 299 297 296 296 296 296 296 295 297 298 295 289 285 286 286 285 284 283 282 282 281 281 280 280
129 150 191 201 197 189 190 194 196 198 201 204 210 216 221 224 229 232 235 236 237 239 241 244 248 253 256 260 265 272 280 289 297 304 307 305 304 305 305 305 307 309 310 309 309 308 308 308 308 308 309 309 309 308 309 309 308 307 306 307 306 306 307 305 302 301 301 301 301 301 299 301 305 303 296 291 291 292 290 289 287 287 287 286 286 285 283 282
116 127 170 189 192 187 188 195 198 202 204 207 212 217 221 224 226 227 229 232 234 238 240 243 246 249 254 260 267 274 283 291 299 304 303 302 303 304 305 306 308 310 310 309 310 309 309 309 309 309 310 311 311 311 311 311 310 308 308 310 310 310 311 308 306 306 307 307 308 305 304 314 316 307 301 299 299 298 296 295 295 295 297 296 294 289 285 281
108 121 146 166 177 177 185 194 199 205 208 212 215 218 221 223 226 227 229 231 234 237 240 243 246 250 257 264 269 276 284 291 300 303 302 302 302 304 305 307 309 310 310 310 310 309 309 310 310 311 312 313 313 312 312 312 311 310 311 313 312 312 312 309 307 309 309 310 311 306 306 321 319 308 305 302 300 300 300 300 301 303 302 299 294 289 286 283
94 103 123 148 162 170 183 193 201 209 215 219 221 222 223 223 225 228 230 232 233 235 240 243 246 252 257 261 268 277 288 296 302 304 302 302 303 304 306 309 311 311 311 310 310 309 310 311 312 313 312 313 313 313 314 314 313 313 315 316 313 313 313 308 306 308 309 310 310 305 306 315 315 307 303 300 299 298 299 301 301 300 297 293 290 290 290 290
77 79 99 126 153 172 184 194 206 217 222 226 227 228 227 226 226 227 229 228 230 234 238 242 247 250 248 253 271 283 293 300 305 305 304 304 304 306 309 312 312 312 311 309 309 310 311 312 312 313 313 314 314 315 316 316 317 317 318 319 317 317 316 311 310 312 312 312 311 308 309 318 318 310 305 301 302 302 303 304 302 298 295 293 291 291 291 292
66 62 75 92 143 181 191 199 212 220 225 229 229 229 228 228 228 227 227 228 230 234 239 243 243 239 239 261 281 291 299 304 306 306 305 304 305 308 311 313 313 311 311 311 311 311 312 312 312 313 313 315 316 317 319 319 320 319 320 322 319 320 319 315 316 317 316 316 316 312 314 325 326 318 312 308 309 310 311 309 306 304 301 298 296 294 292 291
62 53 56 63 111 201 207 211 219 221 226 230 229 227 227 228 229 230 231 232 233 236 241 238 230 232 251 275 290 300 305 307 306 306 305 305 309 312 313 314 313 312 312 313 313 312 312 312 313 314 315 317 317 319 320 320 320 319 320 321 320 320 319 317 318 319 317 318 319 315 317 328 330 323 317 312 313 317 317 313 310 309 307 306 304 301 297 294
59 46 45 45 24 229 220 222 225 225 227 232 232 230 229 231 234 238 240 240 238 238 235 226 224 244 270 289 301 307 307 306 305 306 306 309 312 314 314 314 314 314 314 313 312 312 313 313 314 315 316 318 318 319 319 319 319 318 318 319 319 321 320 318 319 320 318 320 322 317 319 331 333 325 319 314 315 320 319 316 315 312 310 309 308 305 303 300
55 42 37 31 5 271 237 233 233 232 231 232 234 234 236 239 243 245 245 246 244 235 225 220 235 268 290 302 309 310 306 304 305 306 308 311 313 315 316 316 316 316 314 312 312 314 315 315 316 316 317 317 318 318 318 318 318 317 318 320 319 321 321 319 319 320 318 320 322 317 318 331 335 326 319 314 315 321 323 320 318 316 314 313 311 310 307 306
51 41 35 27 7 301 255 246 244 242 240 239 239 241 244 247 247 248 249 250 242 228 219 228 257 290 304 309 311 308 305 304 305 306 308 311 314 317 318 318 318 317 315 314 315 316 316 316 316 316 316 316 317 316 317 317 317 318 318 320 320 319 320 319 318 318 316 317 319 315 314 326 334 326 322 318 318 327 328 324 322 320 319 317 315 314 311 309
50 42 35 28 10 315 262 252 252 251 252 252 251 249 247 246 248 251 250 243 230 222 228 251 282 301 308 311 309 306 305 305 304 306 309 312 317 321 322 321 319 318 317 317 317 317 316 316 315 315 314 315 315 315 315 316 317 318 317 319 320 317 316 317 316 315 314 314 316 313 310 318 330 326 325 321 322 332 331 327 327 322 319 318 317 315 311 308
48 41 35 30 16 328 268 257 255 256 260 260 256 249 244 244 248 251 244 231 225 232 250 278 296 305 309 309 307 306 306 305 304 306 311 315 320 324 324 323 322 320 319 318 318 317 315 315 314 314 314 314 315 315 315 314 316 317 316 316 316 314 313 314 314 313 312 311 312 310 306 310 322 324 325 321 321 330 330 328 327 320 316 315 314 312 306 302
45 39 34 28 11 333 272 261 258 259 263 260 253 246 246 248 248 243 236 230 233 248 271 291 300 304 307 307 306 308 308 304 305 308 312 317 322 325 325 325 323 320 319 318 317 317 314 313 314 313 314 315 315 315 313 312 313 314 313 313 313 312 310 311 312 310 310 310 310 309 304 305 314 316 317 316 316 323 324 323 321 313 308 306 305 300 295 292
40 36 32 24 3 338 279 263 261 261 259 254 250 250 254 257 248 237 233 235 241 259 279 291 297 302 305 306 308 310 308 305 306 309 313 317 322 325 326 325 324 321 319 317 317 318 314 312 314 313 313 314 314 315 311 309 311 311 311 310 309 309 309 310 311 309 309 308 309 310 304 302 306 305 306 309 310 315 315 312 307 301 299 299 298 294 290 291
35 30 28 21 357 332 284 265 262 261 256 252 253 257 262 261 249 239 237 242 251 266 279 290 297 301 304 308 312 312 310 307 307 310 313 316 320 324 325 325 324 321 319 316 316 317 313 311 313 313 312 313 313 313 309 308 309 309 309 308 306 307 307 308 309 308 308 307 307 310 307 303 302 304 309 307 306 307 304 300 295 293 295 297 297 295 294 295
28 21 18 9 347 330 286 271 272 269 262 263 265 268 272 264 248 240 242 247 256 268 279 291 299 302 306 312 315 314 311 309 309 311 312 314 317 320 322 323 322 320 318 315 315 317 312 309 311 311 310 312 311 309 306 306 307 307 308 307 305 306 306 306 307 306 306 305 305 308 310 305 301 305 310 307 306 304 297 294 293 292 294 296 297 297 297 298
19 12 4 347 338 329 305 290 287 284 279 280 282 283 281 267 249 245 250 255 262 271 280 291 301 306 310 314 316 316 312 310 311 310 310 312 314 315 317 319 318 318 316 312 314 315 310 308 309 308 308 309 308 306 304 304 305 306 307 305 305 305 305 305 305 304 304 303 302 305 308 304 301 306 308 305 305 304 298 296 295 294 295 295 295 296 297 298
8 1 345 332 333 328 317 305 297 295 295 294 295 293 287 273 259 257 262 265 269 277 285 294 303 308 312 315 317 316 313 312 311 308 308 309 310 311 312 313 313 314 311 310 312 312 308 306 306 305 306 307 305 303 303 303 303 303 303 303 303 303 303 303 302 302 302 300 300 305 305 301 302 305 304 302 304 303 302 302 300 298 295 292 292 293 294 295
354 347 333 326 328 326 319 309 303 302 303 303 302 300 292 282 275 272 273 274 276 283 291 299 305 309 313 314 315 315 313 312 310 307 306 306 306 307 307 308 309 308 306 306 309 308 304 304 304 304 306 305 303 302 302 301 301 301 301 301 301 301 301 301 299 299 299 298 300 304 302 299 301 301 300 301 303 303 304 304 303 300 296 294 293 293 292 291
339 336 327 325 324 321 316 309 305 306 308 309 307 303 297 290 285 283 282 282 284 289 295 301 305 308 311 312 312 312 312 310 308 306 305 303 303 303 303 304 304 303 302 304 305 303 301 302 303 304 304 303 302 301 301 301 300 300 300 300 300 299 299 297 297 297 296 296 300 301 299 298 299 298 299 301 302 303 303 303 302 300 298 297 295 293 291 288
327 326 324 324 322 316 312 309 307 309 311 311 308 303 298 294 291 290 290 290 291 294 297 300 304 306 307 308 308 309 310 309 307 306 304 303 301 300 300 301 300 300 300 300 300 300 301 302 302 303 302 301 301 300 301 300 300 300 299 299 299 298 297 296 296 296 294 296 299 299 298 297 297 297 299 301 302 302 301 300 300 299 299 298 297 294 291 288
317 319 323 324 320 314 313 311 310 312 313 311 307 303 299 297 297 298 297 296 295 296 297 300 303 304 304 305 305 306 308 308 307 307 305 303 300 298 298 298 298 299 299 299 299 300 302 302 301 301 300 300 300 300 300 299 299 299 299 300 299 299 298 297 296 295 295 296 298 298 297 296 297 298 299 300 300 299 298 298 298 298 298 298 297 296 294 291
309 317 324 324 318 314 313 313 313 313 313 311 307 303 302 303 302 301 300 298 298 298 298 300 302 302 302 303 304 305 307 307 307 307 305 303 301 298 297 297 296 297 298 299 301 303 304 304 302 301 301 300 301 301 301 300 300 300 301 301 300 301 300 299 298 297 296 297 297 296 295 295 297 297 297 297 297 296 296 296 296 296 296 296 296 295 293 292
307 317 323 322 317 313 312 314 314 313 313 311 308 306 307 307 305 302 301 300 299 299 299 299 300 301 302 303 304 305 306 307 307 307 305 303 301 299 297 296 295 294 296 297 299 301 304 304 303 303 303 304 304 304 303 302 303 303 303 301 301 302 301 299 299 298 297 296 295 295 294 295 296 295 294 294 294 294 294 294 294 294 294 294 294 294 293 292
309 318 322 319 315 313 313 315 313 313 312 310 309 311 310 307 305 303 302 301 300 300 299 299 300 302 302 303 305 307 307 308 308 307 306 304 302 300 298 297 296 296 297 297 298 299 300 303 304 303 304 304 305 304 304 304 305 303 302 302 303 302 301 299 299 298 297 295 295 295 295 295 295 293 293 293 293 294 294 294 294 293 293 293 292 292 291 290
314 320 319 316 314 313 313 313 312 312 312 312 313 314 310 308 307 305 305 302 301 300 299 300 302 303 304 305 306 308 308 309 308 307 306 305 303 302 301 300 300 300 300 300 300 299 299 301 303 303 303 304 303 303 304 305 304 303 303 303 302 301 300 299 298 298 298 297 297 298 297 296 295 294 293 294 294 294 293 292 292 290 290 289 288 287 287 286
316 317 315 313 312 312 312 313 314 314 314 315 315 314 311 310 310 308 306 304 302 301 301 301 303 304 305 306 307 308 308 307 307 307 306 305 304 303 303 302 303 303 303 303 302 302 301 302 303 302 302 302 302 301 302 303 302 303 303 302 302 301 301 300 300 300 300 299 299 299 298 297 296 295 295 294 293 292 291 289 288 287 286 285 285 284 283 283
312 311 311 311 311 313 315 316 316 317 317 317 316 314 312 310 310 309 307 305 304 304 304 305 306 307 307 307 308 307 307 306 307 307 307 306 305 305 304 305 305 305 305 305 304 304 303 302 302 302 302 302 302 302 302 302 302 302 302 302 302 302 302 302 302 303 303 302 301 301 300 298 297 296 296 295 293 291 289 288 287 286 286 285 284 283 282 282
307 309 311 313 314 316 318 318 321 321 319 317 316 314 311 309 310 309 307 307 307 307 308 309 310 310 310 309 309 308 308 308 309 308 308 307 306 306 305 306 306 306 306 306 305 305 305 304 304 304 304 304 304 304 303 303 303 303 302 303 303 303 303 303 303 304 304 302 301 301 301 300 299 299 298 297 295 293 291 290 289 288 287 286 285 284 283 282
306 310 313 315 317 319 321 322 323 320 317 316 314 313 311 308 309 308 308 309 310 310 310 311 310 310 310 309 309 310 311 310 310 310 309 308 306 306 306 306 306 306 306 307 306 306 307 306 307 308 308 307 307 306 306 306 305 305 304 304 304 304 304 303 303 304 303 302 302 302 302 301 301 301 300 299 298 296 294 293 291 290 289 287 286 285 284 283
310 314 316 318 321 322 323 322 320 316 314 314 312 311 309 308 309 310 311 312 312 311 311 311 310 310 310 310 311 311 311 311 310 310 308 307 307 307 308 308 308 308 308 309 309 310 310 309 309 311 311 310 309 308 308 308 308 307 307 306 306 306 306 305 304 304 302 302 303 303 302 302 302 301 301 300 299 297 296 295 293 292 290 289 288 286 285 284
313 317 320 322 323 322 321 318 314 312 312 312 311 310 310 310 311 312 313 313 312 312 312 311 311 311 312 312 312 312 312 311 310 310 309 308 309 310 311 311 312 312 312 312 312 312 311 310 311 312 313 313 313 311 311 310 309 308 308 308 308 307 306 305 304 303 301 301 302 303 302 303 304 303 302 301 300 298 297 296 294 293 291 289 288 286 285 283
315 320 324 325 323 319 316 312 310 310 311 310 310 311 311 312 313 313 313 312 312 312 312 312 312 312 312 312 311 311 311 311 311 311 311 311 313 314 314 314 315 315 314 313 313 313 313 313 314 313 313 314 314 313 312 311 311 310 309 308 306 305 305 305 306 306 305 304 305 305 304 305 305 304 303 303 301 298 296 294 292 291 289 287 285 283 282 280
320 325 326 323 318 313 310 309 309 310 311 312 312 312 312 313 313 313 313 312 312 312 312 312 312 312 312 311 311 312 312 312 313 313 314 315 315 315 315 315 314 313 313 313 313 314 315 316 317 317 316 315 314 313 312 312 312 311 311 310 310 309 309 308 308 308 307 306 307 306 306 307 306 305 304 304 302 299 297 295 292 290 288 286 284 283 281 280
322 322 319 315 310 308 309 310 311 312 313 314 314 313 313 314 313 313 313 313 312 312 312 312 312 312 312 312 313 314 314 315 316 316 316 316 315 314 314 314 313 314 314 315 316 317 318 319 320 320 320 319 318 317 316 315 315 314 314 313 313 312 311 311 309 308 307 307 307 307 307 306 306 306 306 306 305 303 300 297 294 292 289 288 286 284 282 280
314 312 309 307 306 307 310 312 313 313 314 314 314 314 315 314 314 314 313 313 313 312 312 312 312 313 314 314 315 316 317 317 317 316 315 315 314 314 314 314 315 317 318 319 320 321 321 322 321 321 321 321 321 321 321 320 319 318 317 316 315 314 314 313 312 311 310 309 309 309 309 308 307 307 307 307 306 304 302 299 297 294 291 290 288 285 282 280
306 305 304 305 307 310 313 314 314 314 315 314 315 315 315 315 314 314 314 314 313 314 314 313 314 315 315 316 316 317 317 317 316 315 315 314 314 315 316 318 319 320 321 322 323 323 323 322 322 322 323 324 323 323 323 323 322 322 321 319 318 317 316 315 314 313 312 312 312 311 311 311 310 309 308 307 305 304 303 302 300 298 296 294 293 290 287 284
303 305 307 309 313 315 315 314 314 314 314 314 314 314 315 315 315 315 315 315 314 314 315 315 315 316 317 317 318 318 317 316 315 315 315 315 316 319 320 322 323 323 324 324 324 324 323 322 322 322 324 324 324 323 323 323 323 323 323 322 320 319 317 316 315 314 313 314 314 313 312 312 311 310 309 307 306 306 305 304 303 302 300 299 298 297 295 291
305 309 311 314 315 316 315 314 314 313 314 315 316 316 316 317 316 316 316 316 316 316 316 316 317 318 319 319 319 318 316 315 314 315 316 319 321 323 324 325 325 325 326 325 324 323 323 323 323 323 324 324 323 323 323 324 324 325 324 323 321 319 318 318 317 315 314 314 313 311 311 311 310 309 309 308 308 307 306 305 304 303 302 301 300 299 297 295
308 311 313 314 314 314 314 313 314 316 318 319 319 318 318 317 317 317 317 318 318 318 318 319 319 320 320 319 318 317 316 316 317 319 322 324 325 326 326 326 326 326 326 325 324 324 324 324 324 323 324 325 324 324 325 325 326 326 324 322 320 319 319 319 317 314 312 311 310 307 307 308 308 308 308 308 307 306 304 303 302 302 301 300 300 299 298 297
310 312 313 313 313 314 314 316 319 322 322 321 319 319 319 319 320 320 320 320 320 320 320 321 320 320 319 318 318 318 319 321 324 326 327 327 328 328 327 327 327 327 326 325 325 326 326 326 325 324 325 326 326 325 326 326 326 325 323 321 320 319 318 317 314 311 309 309 307 305 305 306 306 305 305 306 306 304 302 301 301 300 299 299 298 298 297 297
313 313 314 314 315 317 320 323 325 323 321 320 320 321 322 322 323 322 322 322 322 322 322 321 320 319 318 318 319 321 324 326 328 329 329 329 329 329 329 329 328 328 327 327 327 327 327 327 327 326 326 327 327 326 327 326 325 324 322 321 319 317 316 314 311 309 308 307 307 306 305 305 305 305 305 304 304 303 302 302 300 298 297 296 296 296 296 297